Time,TemperatureF,DewpointF,PressureIn,WindDirection,WindDirectionDegrees,WindSpeedMPH,WindSpeedGustMPH,Humidity,HourlyPrecipIn,Conditions,Clouds,dailyrainin,SoftwareType,DateUTC
2013-05-21 00:00:00,71.2,56.7,29.64,SSW,209,4.0,9.0,60,0.00,,,0.00,meteohub,2013-05-21 05:00:00,
2013-05-21 00:05:00,71.1,56.5,29.63,SSW,207,5.0,9.0,60,0.00,,,0.00,meteohub,2013-05-21 05:05:00,
2013-05-21 00:10:00,71.1,56.5,29.64,WSW,241,7.0,9.0,60,0.00,,,0.00,meteohub,2013-05-21 05:10:00,
2013-05-21 00:15:00,71.2,57.0,29.63,WSW,246,2.0,9.0,61,0.00,,,0.00,meteohub,2013-05-21 05:15:00,
2013-05-21 00:20:00,71.1,57.4,29.64,WSW,257,4.0,9.0,62,0.00,,,0.00,meteohub,2013-05-21 05:20:00,
2013-05-21 00:25:00,70.5,57.4,29.64,WSW,250,6.0,9.0,63,0.00,,,0.00,meteohub,2013-05-21 05:25:00,
2013-05-21 00:30:00,70.3,57.2,29.64,WSW,248,5.0,9.0,63,0.00,,,0.00,meteohub,2013-05-21 05:30:00,
2013-05-21 00:35:00,70.2,57.4,29.64,West,264,2.0,9.0,64,0.00,,,0.00,meteohub,2013-05-21 05:35:00,
2013-05-21 00:40:00,70.0,56.8,29.64,SW,221,0.0,14.0,63,0.00,,,0.00,meteohub,2013-05-21 05:40:00,
2013-05-21 00:45:00,70.0,56.8,29.64,WNW,289,9.0,14.0,63,0.00,,,0.00,meteohub,2013-05-21 05:45:00,
2013-05-21 00:50:00,69.6,56.8,29.64,WNW,300,9.0,14.0,64,0.00,,,0.00,meteohub,2013-05-21 05:50:00,
2013-05-21 00:55:00,69.4,56.7,29.64,SW,236,6.0,14.0,64,0.00,,,0.00,meteohub,2013-05-21 05:55:00,
2013-05-21 01:00:00,69.3,56.1,29.64,West,280,6.0,14.0,63,0.00,,,0.00,meteohub,2013-05-21 06:00:00,
2013-05-21 01:05:00,69.1,55.9,29.64,WNW,300,4.0,13.0,63,0.00,,,0.00,meteohub,2013-05-21 06:05:00,
2013-05-21 01:10:00,68.7,55.2,29.65,NW,304,5.0,13.0,62,0.00,,,0.00,meteohub,2013-05-21 06:10:00,
2013-05-21 01:15:00,68.4,54.9,29.64,WNW,298,5.0,13.0,62,0.00,,,0.00,meteohub,2013-05-21 06:15:00,
2013-05-21 01:20:00,68.2,53.8,29.64,West,267,10.0,13.0,60,0.00,,,0.00,meteohub,2013-05-21 06:20:00,
2013-05-21 01:25:00,67.8,52.9,29.64,NW,308,2.0,14.0,59,0.00,,,0.00,meteohub,2013-05-21 06:25:00,
2013-05-21 01:30:00,67.8,52.5,29.64,NW,309,4.0,14.0,58,0.00,,,0.00,meteohub,2013-05-21 06:30:00,
2013-05-21 01:35:00,67.6,52.3,29.64,WSW,238,6.0,14.0,58,0.00,,,0.00,meteohub,2013-05-21 06:35:00,
2013-05-21 01:40:00,67.5,52.2,29.64,West,274,2.0,15.0,58,0.00,,,0.00,meteohub,2013-05-21 06:40:00,
2013-05-21 01:45:00,67.3,52.0,29.64,West,259,7.0,15.0,58,0.00,,,0.00,meteohub,2013-05-21 06:45:00,
2013-05-21 01:50:00,66.9,51.6,29.64,SW,232,7.0,15.0,58,0.00,,,0.00,meteohub,2013-05-21 06:50:00,
2013-05-21 01:55:00,66.7,51.4,29.64,WSW,256,3.0,15.0,58,0.00,,,0.00,meteohub,2013-05-21 06:55:00,
2013-05-21 02:00:00,66.6,51.8,29.64,West,260,4.0,14.0,59,0.00,,,0.00,meteohub,2013-05-21 07:00:00,
2013-05-21 02:05:00,66.4,51.6,29.64,West,271,6.0,14.0,59,0.00,,,0.00,meteohub,2013-05-21 07:05:00,
2013-05-21 02:10:00,66.2,51.4,29.64,West,277,4.0,14.0,59,0.00,,,0.00,meteohub,2013-05-21 07:10:00,
2013-05-21 02:15:00,66.0,51.3,29.65,West,259,5.0,14.0,59,0.00,,,0.00,meteohub,2013-05-21 07:15:00,
2013-05-21 02:20:00,65.8,51.1,29.64,WNW,286,2.0,11.0,59,0.00,,,0.00,meteohub,2013-05-21 07:20:00,
2013-05-21 02:25:00,65.8,51.6,29.65,SW,219,4.0,11.0,60,0.00,,,0.00,meteohub,2013-05-21 07:25:00,
2013-05-21 02:30:00,65.7,51.4,29.65,WSW,240,3.0,12.0,60,0.00,,,0.00,meteohub,2013-05-21 07:30:00,
2013-05-21 02:35:00,65.5,51.6,29.65,WSW,258,3.0,12.0,61,0.00,,,0.00,meteohub,2013-05-21 07:35:00,
2013-05-21 02:40:00,65.3,51.1,29.65,WNW,286,3.0,12.0,60,0.00,,,0.00,meteohub,2013-05-21 07:40:00,
2013-05-21 02:45:00,65.1,50.9,29.65,SW,217,4.0,12.0,60,0.00,,,0.00,meteohub,2013-05-21 07:45:00,
2013-05-21 02:50:00,64.9,51.1,29.65,WSW,252,3.0,9.0,61,0.00,,,0.00,meteohub,2013-05-21 07:50:00,
2013-05-21 02:55:00,64.6,50.9,29.66,WSW,244,3.0,9.0,61,0.00,,,0.00,meteohub,2013-05-21 07:55:00,
2013-05-21 03:00:00,64.2,50.9,29.65,WNW,286,2.0,9.0,62,0.00,,,0.00,meteohub,2013-05-21 08:00:00,
2013-05-21 03:05:00,64.0,50.7,29.65,WSW,251,1.0,9.0,62,0.00,,,0.00,meteohub,2013-05-21 08:05:00,
2013-05-21 03:10:00,63.7,50.9,29.65,West,268,10.0,10.0,63,0.00,,,0.00,meteohub,2013-05-21 08:10:00,
2013-05-21 03:15:00,63.5,50.7,29.65,WSW,245,3.0,10.0,63,0.00,,,0.00,meteohub,2013-05-21 08:15:00,
2013-05-21 03:20:00,63.3,50.9,29.65,West,271,5.0,10.0,64,0.00,,,0.00,meteohub,2013-05-21 08:20:00,
2013-05-21 03:25:00,63.1,50.7,29.65,WNW,283,1.0,10.0,64,0.00,,,0.00,meteohub,2013-05-21 08:25:00,
2013-05-21 03:30:00,63.0,51.1,29.65,West,261,0.0,11.0,65,0.00,,,0.00,meteohub,2013-05-21 08:30:00,
2013-05-21 03:35:00,62.8,50.9,29.66,WSW,249,4.0,11.0,65,0.00,,,0.00,meteohub,2013-05-21 08:35:00,
2013-05-21 03:40:00,62.8,50.9,29.66,SW,225,2.0,11.0,65,0.00,,,0.00,meteohub,2013-05-21 08:40:00,
2013-05-21 03:45:00,62.6,51.1,29.66,WSW,243,6.0,11.0,66,0.00,,,0.00,meteohub,2013-05-21 08:45:00,
2013-05-21 03:50:00,62.4,50.9,29.67,WSW,246,5.0,11.0,66,0.00,,,0.00,meteohub,2013-05-21 08:50:00,
2013-05-21 03:55:00,62.2,50.7,29.67,SW,215,4.0,11.0,66,0.00,,,0.00,meteohub,2013-05-21 08:55:00,
2013-05-21 04:00:00,62.1,50.9,29.68,SW,229,5.0,11.0,67,0.00,,,0.00,meteohub,2013-05-21 09:00:00,
2013-05-21 04:05:00,61.9,50.7,29.68,SW,232,5.0,11.0,67,0.00,,,0.00,meteohub,2013-05-21 09:05:00,
2013-05-21 04:10:00,61.7,51.1,29.68,WSW,252,7.0,11.0,68,0.00,,,0.00,meteohub,2013-05-21 09:10:00,
2013-05-21 04:15:00,61.5,50.9,29.68,West,259,3.0,9.0,68,0.00,,,0.00,meteohub,2013-05-21 09:15:00,
2013-05-21 04:20:00,61.3,51.1,29.68,WSW,247,6.0,9.0,69,0.00,,,0.00,meteohub,2013-05-21 09:20:00,
2013-05-21 04:25:00,61.2,50.9,29.68,West,271,4.0,9.0,69,0.00,,,0.00,meteohub,2013-05-21 09:25:00,
2013-05-21 04:30:00,61.0,51.1,29.68,West,259,5.0,9.0,70,0.00,,,0.00,meteohub,2013-05-21 09:30:00,
2013-05-21 04:35:00,61.0,51.1,29.68,SW,232,3.0,9.0,70,0.00,,,0.00,meteohub,2013-05-21 09:35:00,
2013-05-21 04:40:00,60.6,51.1,29.68,WNW,285,6.0,9.0,71,0.00,,,0.00,meteohub,2013-05-21 09:40:00,
2013-05-21 04:45:00,60.4,51.1,29.68,West,271,5.0,9.0,71,0.00,,,0.00,meteohub,2013-05-21 09:45:00,
2013-05-21 04:50:00,60.4,51.4,29.68,SW,231,3.0,9.0,72,0.00,,,0.00,meteohub,2013-05-21 09:50:00,
2013-05-21 04:55:00,60.3,51.3,29.68,SSW,212,2.0,10.0,72,0.00,,,0.00,meteohub,2013-05-21 09:55:00,
2013-05-21 05:00:00,60.1,51.4,29.68,West,262,2.0,10.0,73,0.00,,,0.00,meteohub,2013-05-21 10:00:00,
2013-05-21 05:05:00,60.1,51.4,29.68,SW,217,4.0,10.0,73,0.00,,,0.00,meteohub,2013-05-21 10:05:00,
2013-05-21 05:10:00,59.7,51.4,29.68,WSW,251,3.0,10.0,74,0.00,,,0.00,meteohub,2013-05-21 10:10:00,
2013-05-21 05:15:00,59.7,51.4,29.68,SW,232,6.0,10.0,74,0.00,,,0.00,meteohub,2013-05-21 10:15:00,
2013-05-21 05:20:00,59.5,51.3,29.69,WNW,282,2.0,10.0,74,0.00,,,0.00,meteohub,2013-05-21 10:20:00,
2013-05-21 05:25:00,59.5,51.6,29.69,SW,230,2.0,10.0,75,0.00,,,0.00,meteohub,2013-05-21 10:25:00,
2013-05-21 05:30:00,59.4,51.4,29.69,West,264,1.0,10.0,75,0.00,,,0.00,meteohub,2013-05-21 10:30:00,
2013-05-21 05:35:00,59.4,51.8,29.69,WNW,294,4.0,10.0,76,0.00,,,0.00,meteohub,2013-05-21 10:35:00,
2013-05-21 05:40:00,59.4,51.8,29.69,West,267,0.0,10.0,76,0.00,,,0.00,meteohub,2013-05-21 10:40:00,
2013-05-21 05:45:00,59.4,51.8,29.69,WNW,288,2.0,10.0,76,0.00,,,0.00,meteohub,2013-05-21 10:45:00,
2013-05-21 05:50:00,59.2,51.6,29.69,West,263,1.0,9.0,76,0.00,,,0.00,meteohub,2013-05-21 10:50:00,
2013-05-21 05:55:00,59.2,52.0,29.69,West,281,2.0,9.0,77,0.00,,,0.00,meteohub,2013-05-21 10:55:00,
2013-05-21 06:00:00,59.2,52.0,29.69,West,266,5.0,9.0,77,0.00,,,0.00,meteohub,2013-05-21 11:00:00,
2013-05-21 06:05:00,59.2,52.0,29.70,WSW,240,2.0,9.0,77,0.00,,,0.00,meteohub,2013-05-21 11:05:00,
2013-05-21 06:10:00,59.4,52.2,29.70,WNW,292,1.0,9.0,77,0.00,,,0.00,meteohub,2013-05-21 11:10:00,
2013-05-21 06:15:00,59.2,52.0,29.69,WNW,290,1.0,9.0,77,0.00,,,0.00,meteohub,2013-05-21 11:15:00,
2013-05-21 06:20:00,59.2,52.0,29.69,SW,221,4.0,10.0,77,0.00,,,0.00,meteohub,2013-05-21 11:20:00,
2013-05-21 06:25:00,59.2,52.0,29.70,West,261,5.0,10.0,77,0.00,,,0.00,meteohub,2013-05-21 11:25:00,
2013-05-21 06:30:00,59.2,52.0,29.70,SW,236,2.0,10.0,77,0.00,,,0.00,meteohub,2013-05-21 11:30:00,
2013-05-21 06:35:00,59.2,52.0,29.70,SW,223,3.0,10.0,77,0.00,,,0.00,meteohub,2013-05-21 11:35:00,
2013-05-21 06:40:00,59.2,52.0,29.70,West,259,3.0,10.0,77,0.00,,,0.00,meteohub,2013-05-21 11:40:00,
2013-05-21 06:45:00,59.2,52.0,29.70,WNW,287,5.0,10.0,77,0.00,,,0.00,meteohub,2013-05-21 11:45:00,
2013-05-21 06:50:00,59.2,52.0,29.70,West,277,3.0,10.0,77,0.00,,,0.00,meteohub,2013-05-21 11:50:00,
2013-05-21 06:55:00,59.4,52.2,29.71,WSW,254,10.0,10.0,77,0.00,,,0.00,meteohub,2013-05-21 11:55:00,
2013-05-21 07:00:00,59.5,52.0,29.71,West,276,2.0,9.0,76,0.00,,,0.00,meteohub,2013-05-21 12:00:00,
2013-05-21 07:05:00,59.7,52.2,29.71,West,275,3.0,9.0,76,0.00,,,0.00,meteohub,2013-05-21 12:05:00,
2013-05-21 07:10:00,59.9,52.3,29.72,West,261,3.0,9.0,76,0.00,,,0.00,meteohub,2013-05-21 12:10:00,
2013-05-21 07:15:00,60.1,52.5,29.72,SSW,212,4.0,9.0,76,0.00,,,0.00,meteohub,2013-05-21 12:15:00,
2013-05-21 07:20:00,60.4,52.5,29.72,WNW,290,2.0,9.0,75,0.00,,,0.00,meteohub,2013-05-21 12:20:00,
2013-05-21 07:25:00,60.4,52.5,29.72,WSW,252,5.0,9.0,75,0.00,,,0.00,meteohub,2013-05-21 12:25:00,
2013-05-21 07:30:00,60.6,52.3,29.71,WNW,286,13.0,13.0,74,0.00,,,0.00,meteohub,2013-05-21 12:30:00,
2013-05-21 07:35:00,60.8,52.9,29.72,West,263,5.0,9.0,75,0.00,,,0.00,meteohub,2013-05-21 12:35:00,
2013-05-21 07:40:00,61.0,52.7,29.73,WSW,241,5.0,13.0,74,0.00,,,0.00,meteohub,2013-05-21 12:40:00,
2013-05-21 07:45:00,61.3,53.1,29.72,West,275,4.0,13.0,74,0.00,,,0.00,meteohub,2013-05-21 12:45:00,
2013-05-21 07:50:00,61.7,52.9,29.72,West,267,5.0,13.0,73,0.00,,,0.00,meteohub,2013-05-21 12:50:00,
2013-05-21 07:55:00,61.9,53.1,29.73,SW,235,4.0,13.0,73,0.00,,,0.00,meteohub,2013-05-21 12:55:00,
2013-05-21 08:00:00,62.1,52.9,29.73,NW,315,3.0,13.0,72,0.00,,,0.00,meteohub,2013-05-21 13:00:00,
2013-05-21 08:05:00,62.2,53.1,29.73,West,269,4.0,13.0,72,0.00,,,0.00,meteohub,2013-05-21 13:05:00,
2013-05-21 08:10:00,62.4,52.9,29.73,WNW,296,3.0,13.0,71,0.00,,,0.00,meteohub,2013-05-21 13:10:00,
2013-05-21 08:15:00,62.8,53.2,29.73,NW,317,5.0,11.0,71,0.00,,,0.00,meteohub,2013-05-21 13:15:00,
2013-05-21 08:20:00,63.0,53.1,29.73,West,276,4.0,11.0,70,0.00,,,0.00,meteohub,2013-05-21 13:20:00,
2013-05-21 08:25:00,63.0,52.7,29.73,WNW,288,4.0,11.0,69,0.00,,,0.00,meteohub,2013-05-21 13:25:00,
2013-05-21 08:30:00,63.0,52.7,29.73,SW,215,6.0,11.0,69,0.00,,,0.00,meteohub,2013-05-21 13:30:00,
2013-05-21 08:35:00,63.1,52.9,29.73,West,269,3.0,11.0,69,0.00,,,0.00,meteohub,2013-05-21 13:35:00,
2013-05-21 08:40:00,63.3,53.1,29.73,NW,310,5.0,14.0,69,0.00,,,0.00,meteohub,2013-05-21 13:40:00,
2013-05-21 08:46:00,63.1,52.9,29.73,West,263,5.0,14.0,69,0.00,,,0.00,meteohub,2013-05-21 13:46:00,
2013-05-21 08:51:00,63.3,52.5,29.73,NW,309,6.0,14.0,68,0.00,,,0.00,meteohub,2013-05-21 13:51:00,
2013-05-21 08:56:00,63.3,52.5,29.73,WNW,299,10.0,14.0,68,0.00,,,0.00,meteohub,2013-05-21 13:56:00,
2013-05-21 09:01:00,63.3,52.5,29.73,West,266,3.0,14.0,68,0.00,,,0.00,meteohub,2013-05-21 14:01:00,
2013-05-21 09:06:00,64.0,52.9,29.73,WNW,299,3.0,14.0,67,0.00,,,0.00,meteohub,2013-05-21 14:06:00,
2013-05-21 09:11:00,64.4,52.9,29.73,WNW,286,4.0,14.0,66,0.00,,,0.00,meteohub,2013-05-21 14:11:00,
2013-05-21 09:16:00,64.4,52.9,29.73,West,277,5.0,11.0,66,0.00,,,0.00,meteohub,2013-05-21 14:16:00,
2013-05-21 09:21:00,64.6,52.9,29.73,NW,321,4.0,11.0,66,0.00,,,0.00,meteohub,2013-05-21 14:21:00,
2013-05-21 09:26:00,65.1,52.7,29.72,West,269,7.0,11.0,64,0.00,,,0.00,meteohub,2013-05-21 14:26:00,
2013-05-21 09:31:00,65.5,52.5,29.72,WNW,298,9.0,11.0,63,0.00,,,0.00,meteohub,2013-05-21 14:31:00,
2013-05-21 09:36:00,65.7,53.2,29.72,WNW,295,2.0,11.0,64,0.00,,,0.00,meteohub,2013-05-21 14:36:00,
2013-05-21 09:41:00,65.7,52.3,29.71,NW,321,12.0,15.0,62,0.00,,,0.00,meteohub,2013-05-21 14:41:00,
2013-05-21 09:46:00,65.5,52.5,29.71,West,279,6.0,15.0,63,0.00,,,0.00,meteohub,2013-05-21 14:46:00,
2013-05-21 09:51:00,65.7,52.7,29.71,WNW,290,5.0,15.0,63,0.00,,,0.00,meteohub,2013-05-21 14:51:00,
2013-05-21 09:56:00,66.0,52.2,29.71,NW,304,7.0,15.0,61,0.00,,,0.00,meteohub,2013-05-21 14:56:00,
2013-05-21 10:01:00,66.4,52.9,29.70,WSW,242,5.0,15.0,62,0.00,,,0.00,meteohub,2013-05-21 15:01:00,
2013-05-21 10:06:00,66.6,52.7,29.70,WNW,299,5.0,15.0,61,0.00,,,0.00,meteohub,2013-05-21 15:06:00,
2013-05-21 10:11:00,66.6,52.2,29.71,West,259,5.0,15.0,60,0.00,,,0.00,meteohub,2013-05-21 15:11:00,
2013-05-21 10:16:00,66.7,52.3,29.70,West,280,10.0,13.0,60,0.00,,,0.00,meteohub,2013-05-21 15:16:00,
2013-05-21 10:21:00,66.9,52.2,29.70,West,268,3.0,13.0,59,0.00,,,0.00,meteohub,2013-05-21 15:21:00,
2013-05-21 10:26:00,66.9,52.5,29.70,NW,304,4.0,13.0,60,0.00,,,0.00,meteohub,2013-05-21 15:26:00,
2013-05-21 10:31:00,67.3,52.9,29.70,WNW,284,7.0,13.0,60,0.00,,,0.00,meteohub,2013-05-21 15:31:00,
2013-05-21 10:36:00,67.8,53.4,29.70,NW,317,3.0,13.0,60,0.00,,,0.00,meteohub,2013-05-21 15:36:00,
2013-05-21 10:41:00,68.2,53.2,29.71,WSW,255,4.0,12.0,59,0.00,,,0.00,meteohub,2013-05-21 15:41:00,
2013-05-21 10:46:00,68.4,52.5,29.71,WSW,237,4.0,12.0,57,0.00,,,0.00,meteohub,2013-05-21 15:46:00,
2013-05-21 10:51:00,68.4,52.5,29.71,West,271,7.0,12.0,57,0.00,,,0.00,meteohub,2013-05-21 15:51:00,
2013-05-21 10:56:00,68.9,52.5,29.72,West,276,6.0,12.0,56,0.00,,,0.00,meteohub,2013-05-21 15:56:00,
2013-05-21 11:01:00,69.1,52.7,29.72,WNW,297,9.0,12.0,56,0.00,,,0.00,meteohub,2013-05-21 16:01:00,
2013-05-21 11:06:00,69.1,53.2,29.72,West,276,4.0,12.0,57,0.00,,,0.00,meteohub,2013-05-21 16:06:00,
2013-05-21 11:11:00,69.3,52.9,29.72,SW,232,5.0,12.0,56,0.00,,,0.00,meteohub,2013-05-21 16:11:00,
2013-05-21 11:16:00,69.6,52.7,29.72,WSW,250,3.0,14.0,55,0.00,,,0.00,meteohub,2013-05-21 16:16:00,
2013-05-21 11:21:00,69.4,52.5,29.72,SSW,211,6.0,14.0,55,0.00,,,0.00,meteohub,2013-05-21 16:21:00,
2013-05-21 11:26:00,69.3,52.9,29.72,WSW,240,3.0,14.0,56,0.00,,,0.00,meteohub,2013-05-21 16:26:00,
2013-05-21 11:31:00,69.4,52.5,29.72,WNW,296,5.0,14.0,55,0.00,,,0.00,meteohub,2013-05-21 16:31:00,
2013-05-21 11:36:00,69.3,52.3,29.71,WSW,252,9.0,14.0,55,0.00,,,0.00,meteohub,2013-05-21 16:36:00,
2013-05-21 11:41:00,69.3,52.3,29.71,WSW,240,4.0,12.0,55,0.00,,,0.00,meteohub,2013-05-21 16:41:00,
2013-05-21 11:46:00,69.4,52.5,29.71,SSW,206,4.0,12.0,55,0.00,,,0.00,meteohub,2013-05-21 16:46:00,
2013-05-21 11:51:00,70.0,52.5,29.71,SW,215,6.0,12.0,54,0.00,,,0.00,meteohub,2013-05-21 16:51:00,
2013-05-21 11:56:00,70.3,51.4,29.72,West,265,6.0,12.0,51,0.00,,,0.00,meteohub,2013-05-21 16:56:00,
2013-05-21 12:01:00,70.2,51.3,29.72,WSW,254,4.0,12.0,51,0.00,,,0.00,meteohub,2013-05-21 17:01:00,
2013-05-21 12:06:00,70.5,52.5,29.71,WNW,284,3.0,12.0,53,0.00,,,0.00,meteohub,2013-05-21 17:06:00,
2013-05-21 12:11:00,71.4,52.3,29.72,SW,218,5.0,12.0,51,0.00,,,0.00,meteohub,2013-05-21 17:11:00,
2013-05-21 12:16:00,70.9,52.3,29.71,WSW,258,5.0,13.0,52,0.00,,,0.00,meteohub,2013-05-21 17:16:00,
2013-05-21 12:21:00,70.5,52.5,29.71,South,169,13.0,13.0,53,0.00,,,0.00,meteohub,2013-05-21 17:21:00,
2013-05-21 12:26:00,70.9,52.3,29.71,SSW,213,8.0,13.0,52,0.00,,,0.00,meteohub,2013-05-21 17:26:00,
2013-05-21 12:31:00,71.2,52.2,29.71,SW,217,10.0,13.0,51,0.00,,,0.00,meteohub,2013-05-21 17:31:00,
2013-05-21 12:36:00,71.4,51.8,29.70,NW,304,4.0,13.0,50,0.00,,,0.00,meteohub,2013-05-21 17:36:00,
2013-05-21 12:41:00,71.6,51.4,29.70,South,177,6.0,13.0,49,0.00,,,0.00,meteohub,2013-05-21 17:41:00,
2013-05-21 12:46:00,71.4,51.3,29.70,WSW,257,10.0,15.0,49,0.00,,,0.00,meteohub,2013-05-21 17:46:00,
2013-05-21 12:51:00,71.4,51.3,29.70,West,260,4.0,15.0,49,0.00,,,0.00,meteohub,2013-05-21 17:51:00,
2013-05-21 12:56:00,72.0,52.3,29.70,SSW,213,6.0,15.0,50,0.00,,,0.00,meteohub,2013-05-21 17:56:00,
2013-05-21 13:01:00,72.1,52.0,29.70,SSW,213,4.0,15.0,49,0.00,,,0.00,meteohub,2013-05-21 18:01:00,
2013-05-21 13:06:00,72.3,52.2,29.69,West,274,5.0,15.0,49,0.00,,,0.00,meteohub,2013-05-21 18:06:00,
2013-05-21 13:11:00,72.7,52.3,29.69,West,265,4.0,15.0,49,0.00,,,0.00,meteohub,2013-05-21 18:11:00,
2013-05-21 13:16:00,73.0,52.2,29.69,SW,229,5.0,15.0,48,0.00,,,0.00,meteohub,2013-05-21 18:16:00,
2013-05-21 13:21:00,73.0,52.7,29.69,WSW,238,4.0,18.0,49,0.00,,,0.00,meteohub,2013-05-21 18:21:00,
2013-05-21 13:26:00,73.4,53.1,29.68,SW,229,12.0,18.0,49,0.00,,,0.00,meteohub,2013-05-21 18:26:00,
2013-05-21 13:31:00,73.6,52.2,29.68,SSE,168,9.0,18.0,47,0.00,,,0.00,meteohub,2013-05-21 18:31:00,
2013-05-21 13:36:00,73.6,52.2,29.68,SW,234,4.0,18.0,47,0.00,,,0.00,meteohub,2013-05-21 18:36:00,
2013-05-21 13:41:00,73.6,52.2,29.68,WSW,241,3.0,18.0,47,0.00,,,0.00,meteohub,2013-05-21 18:41:00,
2013-05-21 13:46:00,74.1,52.0,29.68,NW,309,5.0,17.0,46,0.00,,,0.00,meteohub,2013-05-21 18:46:00,
2013-05-21 13:51:00,74.7,53.1,29.68,South,191,5.0,17.0,47,0.00,,,0.00,meteohub,2013-05-21 18:51:00,
2013-05-21 13:56:00,74.8,52.7,29.68,WSW,240,5.0,17.0,46,0.00,,,0.00,meteohub,2013-05-21 18:56:00,
2013-05-21 14:01:00,74.8,52.7,29.68,WSW,257,5.0,18.0,46,0.00,,,0.00,meteohub,2013-05-21 19:01:00,
2013-05-21 14:06:00,74.5,51.8,29.68,SW,225,4.0,18.0,45,0.00,,,0.00,meteohub,2013-05-21 19:06:00,
2013-05-21 14:11:00,74.3,52.2,29.68,SW,218,4.0,18.0,46,0.00,,,0.00,meteohub,2013-05-21 19:11:00,
2013-05-21 14:16:00,74.5,52.9,29.68,SSW,207,4.0,18.0,47,0.00,,,0.00,meteohub,2013-05-21 19:16:00,
2013-05-21 14:21:00,74.5,52.9,29.68,SW,234,8.0,17.0,47,0.00,,,0.00,meteohub,2013-05-21 19:21:00,
2013-05-21 14:26:00,74.5,52.3,29.68,WNW,300,6.0,17.0,46,0.00,,,0.00,meteohub,2013-05-21 19:26:00,
2013-05-21 14:31:00,74.8,52.7,29.68,SW,232,6.0,17.0,46,0.00,,,0.00,meteohub,2013-05-21 19:31:00,
2013-05-21 14:36:00,74.7,52.5,29.69,SSW,202,4.0,18.0,46,0.00,,,0.00,meteohub,2013-05-21 19:36:00,
2013-05-21 14:41:00,74.8,53.2,29.69,SW,232,4.0,18.0,47,0.00,,,0.00,meteohub,2013-05-21 19:41:00,
2013-05-21 14:46:00,75.0,53.4,29.69,SW,225,4.0,18.0,47,0.00,,,0.00,meteohub,2013-05-21 19:46:00,
2013-05-21 14:51:00,75.4,52.5,29.69,South,190,13.0,18.0,45,0.00,,,0.00,meteohub,2013-05-21 19:51:00,
2013-05-21 14:56:00,74.8,52.7,29.69,SW,234,7.0,18.0,46,0.00,,,0.00,meteohub,2013-05-21 19:56:00,
2013-05-21 15:01:00,75.0,52.9,29.69,SSW,212,3.0,18.0,46,0.00,,,0.00,meteohub,2013-05-21 20:01:00,
2013-05-21 15:06:00,75.2,53.1,29.68,WNW,292,5.0,18.0,46,0.00,,,0.00,meteohub,2013-05-21 20:06:00,
2013-05-21 15:11:00,75.4,52.5,29.68,South,170,3.0,18.0,45,0.00,,,0.00,meteohub,2013-05-21 20:11:00,
2013-05-21 15:16:00,75.4,52.5,29.68,West,275,4.0,17.0,45,0.00,,,0.00,meteohub,2013-05-21 20:16:00,
2013-05-21 15:21:00,75.0,52.9,29.68,WSW,241,7.0,17.0,46,0.00,,,0.00,meteohub,2013-05-21 20:21:00,
2013-05-21 15:26:00,75.4,52.5,29.69,SW,228,4.0,17.0,45,0.00,,,0.00,meteohub,2013-05-21 20:26:00,
2013-05-21 15:31:00,75.0,52.2,29.69,WNW,293,6.0,14.0,45,0.00,,,0.00,meteohub,2013-05-21 20:31:00,
2013-05-21 15:36:00,75.2,53.1,29.69,SW,220,5.0,14.0,46,0.00,,,0.00,meteohub,2013-05-21 20:36:00,
2013-05-21 15:41:00,74.8,53.2,29.68,SSW,200,7.0,14.0,47,0.00,,,0.00,meteohub,2013-05-21 20:41:00,
2013-05-21 15:46:00,74.8,53.2,29.68,NW,309,8.0,14.0,47,0.00,,,0.00,meteohub,2013-05-21 20:46:00,
2013-05-21 15:51:00,75.0,53.4,29.67,NW,326,4.0,17.0,47,0.00,,,0.00,meteohub,2013-05-21 20:51:00,
2013-05-21 15:56:00,75.2,53.1,29.67,West,259,10.0,17.0,46,0.00,,,0.00,meteohub,2013-05-21 20:56:00,
2013-05-21 16:01:00,75.2,53.1,29.66,West,264,6.0,17.0,46,0.00,,,0.00,meteohub,2013-05-21 21:01:00,
2013-05-21 16:06:00,75.2,52.3,29.66,West,274,4.0,17.0,45,0.00,,,0.00,meteohub,2013-05-21 21:06:00,
2013-05-21 16:11:00,75.0,52.9,29.67,SW,222,6.0,17.0,46,0.00,,,0.00,meteohub,2013-05-21 21:11:00,
2013-05-21 16:16:00,74.7,53.1,29.67,WNW,302,6.0,15.0,47,0.00,,,0.00,meteohub,2013-05-21 21:16:00,
2013-05-21 16:21:00,73.9,53.1,29.66,West,275,8.0,15.0,48,0.00,,,0.00,meteohub,2013-05-21 21:21:00,
2013-05-21 16:26:00,73.9,53.1,29.67,NW,313,7.0,15.0,48,0.00,,,0.00,meteohub,2013-05-21 21:26:00,
2013-05-21 16:31:00,73.9,52.5,29.67,SW,235,6.0,16.0,47,0.00,,,0.00,meteohub,2013-05-21 21:31:00,
2013-05-21 16:36:00,73.9,52.5,29.68,SW,227,7.0,16.0,47,0.00,,,0.00,meteohub,2013-05-21 21:36:00,
2013-05-21 16:41:00,73.6,52.7,29.67,WSW,250,4.0,16.0,48,0.00,,,0.00,meteohub,2013-05-21 21:41:00,
2013-05-21 16:46:00,73.6,52.7,29.67,NNE,19,5.0,16.0,48,0.00,,,0.00,meteohub,2013-05-21 21:46:00,
2013-05-21 16:51:00,73.2,52.9,29.66,West,273,6.0,14.0,49,0.00,,,0.00,meteohub,2013-05-21 21:51:00,
2013-05-21 16:56:00,73.2,52.9,29.66,SW,236,4.0,14.0,49,0.00,,,0.00,meteohub,2013-05-21 21:56:00,
2013-05-21 17:01:00,73.2,52.3,29.65,NW,310,4.0,14.0,48,0.00,,,0.00,meteohub,2013-05-21 22:01:00,
2013-05-21 17:06:00,73.2,52.3,29.65,WNW,293,6.0,14.0,48,0.00,,,0.00,meteohub,2013-05-21 22:06:00,
2013-05-21 17:11:00,73.0,52.2,29.64,WSW,256,11.0,14.0,48,0.00,,,0.00,meteohub,2013-05-21 22:11:00,
2013-05-21 17:16:00,72.9,52.0,29.64,SW,228,5.0,17.0,48,0.00,,,0.00,meteohub,2013-05-21 22:16:00,
2013-05-21 17:21:00,73.0,52.2,29.64,West,276,4.0,17.0,48,0.00,,,0.00,meteohub,2013-05-21 22:21:00,
2013-05-21 17:26:00,73.0,52.2,29.64,WNW,296,2.0,17.0,48,0.00,,,0.00,meteohub,2013-05-21 22:26:00,
2013-05-21 17:31:00,72.9,51.4,29.64,WSW,255,6.0,11.0,47,0.00,,,0.00,meteohub,2013-05-21 22:31:00,
2013-05-21 17:36:00,72.5,51.1,29.64,NW,304,11.0,11.0,47,0.00,,,0.00,meteohub,2013-05-21 22:36:00,
2013-05-21 17:41:00,72.1,50.7,29.64,West,263,3.0,11.0,47,0.00,,,0.00,meteohub,2013-05-21 22:41:00,
2013-05-21 17:46:00,72.1,51.4,29.63,WNW,292,3.0,11.0,48,0.00,,,0.00,meteohub,2013-05-21 22:46:00,
2013-05-21 17:51:00,72.1,51.4,29.63,West,273,5.0,15.0,48,0.00,,,0.00,meteohub,2013-05-21 22:51:00,
2013-05-21 17:56:00,72.0,51.3,29.64,WNW,284,4.0,15.0,48,0.00,,,0.00,meteohub,2013-05-21 22:56:00,
2013-05-21 18:01:00,72.1,51.4,29.65,NW,313,5.0,15.0,48,0.00,,,0.00,meteohub,2013-05-21 23:01:00,
2013-05-21 18:06:00,72.1,51.4,29.65,West,273,4.0,15.0,48,0.00,,,0.00,meteohub,2013-05-21 23:06:00,
2013-05-21 18:11:00,72.0,50.7,29.66,West,279,9.0,15.0,47,0.00,,,0.00,meteohub,2013-05-21 23:11:00,
2013-05-21 18:16:00,71.8,50.5,29.66,WNW,286,4.0,15.0,47,0.00,,,0.00,meteohub,2013-05-21 23:16:00,
2013-05-21 18:21:00,71.4,50.7,29.66,NW,321,9.0,14.0,48,0.00,,,0.00,meteohub,2013-05-21 23:21:00,
2013-05-21 18:26:00,71.4,50.7,29.66,NW,308,10.0,14.0,48,0.00,,,0.00,meteohub,2013-05-21 23:26:00,
2013-05-21 18:31:00,71.2,50.5,29.66,WNW,291,4.0,14.0,48,0.00,,,0.00,meteohub,2013-05-21 23:31:00,
2013-05-21 18:36:00,71.1,50.4,29.66,NW,309,7.0,14.0,48,0.00,,,0.00,meteohub,2013-05-21 23:36:00,
2013-05-21 18:41:00,71.1,50.4,29.65,WNW,292,9.0,14.0,48,0.00,,,0.00,meteohub,2013-05-21 23:41:00,
2013-05-21 18:46:00,71.1,50.4,29.65,WNW,303,4.0,14.0,48,0.00,,,0.00,meteohub,2013-05-21 23:46:00,
2013-05-21 18:51:00,71.1,50.4,29.65,WNW,300,6.0,15.0,48,0.00,,,0.00,meteohub,2013-05-21 23:51:00,
2013-05-21 18:56:00,71.1,50.4,29.64,NW,312,4.0,15.0,48,0.00,,,0.00,meteohub,2013-05-21 23:56:00,
2013-05-21 19:01:00,70.9,49.6,29.63,WNW,290,4.0,15.0,47,0.00,,,0.00,meteohub,2013-05-22 00:01:00,
2013-05-21 19:06:00,70.5,49.8,29.63,NW,310,2.0,15.0,48,0.00,,,0.00,meteohub,2013-05-22 00:06:00,
2013-05-21 19:11:00,70.3,49.6,29.63,NW,309,2.0,15.0,48,0.00,,,0.00,meteohub,2013-05-22 00:11:00,
2013-05-21 19:16:00,70.3,50.4,29.64,WNW,286,4.0,12.0,49,0.00,,,0.00,meteohub,2013-05-22 00:16:00,
2013-05-21 19:21:00,70.3,50.4,29.64,WNW,286,3.0,12.0,49,0.00,,,0.00,meteohub,2013-05-22 00:21:00,
2013-05-21 19:26:00,70.2,50.2,29.64,WNW,291,5.0,12.0,49,0.00,,,0.00,meteohub,2013-05-22 00:26:00,
2013-05-21 19:31:00,70.2,50.2,29.64,WNW,301,1.0,7.0,49,0.00,,,0.00,meteohub,2013-05-22 00:31:00,
2013-05-21 19:36:00,70.2,50.2,29.64,NW,316,4.0,7.0,49,0.00,,,0.00,meteohub,2013-05-22 00:36:00,
2013-05-21 19:41:00,70.0,50.5,29.64,WNW,289,4.0,7.0,50,0.00,,,0.00,meteohub,2013-05-22 00:41:00,
2013-05-21 19:46:00,69.8,50.4,29.63,WNW,291,6.0,7.0,50,0.00,,,0.00,meteohub,2013-05-22 00:46:00,
2013-05-21 19:51:00,69.8,50.9,29.62,WNW,284,2.0,7.0,51,0.00,,,0.00,meteohub,2013-05-22 00:51:00,
2013-05-21 19:56:00,69.8,50.9,29.63,WNW,282,1.0,7.0,51,0.00,,,0.00,meteohub,2013-05-22 00:56:00,
2013-05-21 20:01:00,69.6,50.7,29.63,WNW,290,2.0,7.0,51,0.00,,,0.00,meteohub,2013-05-22 01:01:00,
2013-05-21 20:07:00,69.8,50.9,29.64,WNW,299,3.0,7.0,51,0.00,,,0.00,meteohub,2013-05-22 01:07:00,
2013-05-21 20:12:00,69.4,50.5,29.63,NW,315,3.0,7.0,51,0.00,,,0.00,meteohub,2013-05-22 01:12:00,
2013-05-21 20:17:00,69.4,51.1,29.63,WSW,254,1.0,4.0,52,0.00,,,0.00,meteohub,2013-05-22 01:17:00,
2013-05-21 20:22:00,69.4,51.1,29.64,WSW,250,1.0,4.0,52,0.00,,,0.00,meteohub,2013-05-22 01:22:00,
2013-05-21 20:27:00,69.4,51.1,29.64,WSW,245,2.0,4.0,52,0.00,,,0.00,meteohub,2013-05-22 01:27:00,
2013-05-21 20:32:00,69.4,50.5,29.65,SW,227,3.0,5.0,51,0.00,,,0.00,meteohub,2013-05-22 01:32:00,
2013-05-21 20:37:00,69.3,50.9,29.64,WSW,252,1.0,5.0,52,0.00,,,0.00,meteohub,2013-05-22 01:37:00,
2013-05-21 20:42:00,69.3,50.9,29.64,West,260,1.0,5.0,52,0.00,,,0.00,meteohub,2013-05-22 01:42:00,
2013-05-21 20:47:00,69.3,50.9,29.64,SW,235,2.0,5.0,52,0.00,,,0.00,meteohub,2013-05-22 01:47:00,
2013-05-21 20:52:00,69.1,50.7,29.64,West,261,1.0,3.0,52,0.00,,,0.00,meteohub,2013-05-22 01:52:00,
2013-05-21 20:57:00,69.1,50.7,29.64,WSW,255,1.0,3.0,52,0.00,,,0.00,meteohub,2013-05-22 01:57:00,
2013-05-21 21:02:00,69.1,50.7,29.64,West,278,0.0,3.0,52,0.00,,,0.00,meteohub,2013-05-22 02:02:00,
2013-05-21 21:07:00,68.7,50.4,29.65,West,277,1.0,3.0,52,0.00,,,0.00,meteohub,2013-05-22 02:07:00,
2013-05-21 21:12:00,68.7,50.4,29.65,West,273,0.0,3.0,52,0.00,,,0.00,meteohub,2013-05-22 02:12:00,
2013-05-21 21:17:00,68.5,50.7,29.65,WNW,287,0.0,3.0,53,0.00,,,0.00,meteohub,2013-05-22 02:17:00,
2013-05-21 21:22:00,68.5,50.7,29.65,West,281,2.0,3.0,53,0.00,,,0.00,meteohub,2013-05-22 02:22:00,
2013-05-21 21:27:00,68.5,50.7,29.65,West,280,0.0,3.0,53,0.00,,,0.00,meteohub,2013-05-22 02:27:00,
2013-05-21 21:32:00,68.4,50.5,29.66,West,280,0.0,3.0,53,0.00,,,0.00,meteohub,2013-05-22 02:32:00,
2013-05-21 21:37:00,68.4,51.1,29.66,West,280,0.0,3.0,54,0.00,,,0.00,meteohub,2013-05-22 02:37:00,
2013-05-21 21:42:00,68.4,51.6,29.66,West,279,0.0,3.0,55,0.00,,,0.00,meteohub,2013-05-22 02:42:00,
2013-05-21 21:47:00,68.4,51.1,29.66,WSW,258,2.0,3.0,54,0.00,,,0.00,meteohub,2013-05-22 02:47:00,
2013-05-21 21:52:00,68.4,51.6,29.67,WSW,258,1.0,4.0,55,0.00,,,0.00,meteohub,2013-05-22 02:52:00,
2013-05-21 21:57:00,68.2,51.4,29.67,SW,217,2.0,4.0,55,0.00,,,0.00,meteohub,2013-05-22 02:57:00,
2013-05-21 22:02:00,68.2,51.4,29.67,SSW,209,0.0,4.0,55,0.00,,,0.00,meteohub,2013-05-22 03:02:00,
2013-05-21 22:07:00,68.2,51.8,29.68,SW,215,1.0,4.0,56,0.00,,,0.00,meteohub,2013-05-22 03:07:00,
2013-05-21 22:12:00,68.0,51.8,29.67,WSW,241,0.0,4.0,56,0.00,,,0.00,meteohub,2013-05-22 03:12:00,
2013-05-21 22:17:00,68.0,52.2,29.67,WSW,241,0.0,5.0,57,0.00,,,0.00,meteohub,2013-05-22 03:17:00,
2013-05-21 22:22:00,67.8,52.0,29.68,West,264,0.0,5.0,57,0.00,,,0.00,meteohub,2013-05-22 03:22:00,
2013-05-21 22:27:00,67.6,52.3,29.67,West,265,2.0,5.0,58,0.00,,,0.00,meteohub,2013-05-22 03:27:00,
2013-05-21 22:32:00,67.3,52.5,29.68,West,278,1.0,5.0,59,0.00,,,0.00,meteohub,2013-05-22 03:32:00,
2013-05-21 22:37:00,66.9,52.5,29.68,West,279,2.0,3.0,60,0.00,,,0.00,meteohub,2013-05-22 03:37:00,
2013-05-21 22:42:00,66.7,52.9,29.68,WNW,282,2.0,3.0,61,0.00,,,0.00,meteohub,2013-05-22 03:42:00,
2013-05-21 22:47:00,66.4,52.9,29.69,WNW,286,2.0,3.0,62,0.00,,,0.00,meteohub,2013-05-22 03:47:00,
2013-05-21 22:52:00,66.0,53.1,29.69,WNW,283,1.0,3.0,63,0.00,,,0.00,meteohub,2013-05-22 03:52:00,
2013-05-21 22:57:00,66.0,53.1,29.69,West,273,2.0,3.0,63,0.00,,,0.00,meteohub,2013-05-22 03:57:00,
2013-05-21 23:02:00,66.0,53.1,29.68,WSW,257,1.0,3.0,63,0.00,,,0.00,meteohub,2013-05-22 04:02:00,
2013-05-21 23:03:00,66.0,53.4,29.69,West,260,0.0,3.0,64,0.00,,,0.00,meteohub,2013-05-22 04:03:00,
2013-05-21 23:08:00,66.0,53.4,29.69,WSW,254,1.0,3.0,64,0.00,,,0.00,meteohub,2013-05-22 04:08:00,
2013-05-21 23:13:00,66.0,53.4,29.69,West,259,1.0,3.0,64,0.00,,,0.00,meteohub,2013-05-22 04:13:00,
2013-05-21 23:18:00,65.8,53.2,29.69,NW,308,3.0,4.0,64,0.00,,,0.00,meteohub,2013-05-22 04:18:00,
2013-05-21 23:23:00,65.5,53.4,29.69,West,273,6.0,6.0,65,0.00,,,0.00,meteohub,2013-05-22 04:23:00,
2013-05-21 23:28:00,65.1,53.1,29.69,WNW,293,4.0,4.0,65,0.00,,,0.00,meteohub,2013-05-22 04:28:00,
2013-05-21 23:33:00,64.8,53.1,29.69,NW,315,2.0,4.0,66,0.00,,,0.00,meteohub,2013-05-22 04:33:00,
2013-05-21 23:38:00,64.2,52.7,29.69,WNW,298,3.0,10.0,66,0.00,,,0.00,meteohub,2013-05-22 04:38:00,
2013-05-21 23:43:00,64.0,52.9,29.69,NW,314,4.0,10.0,67,0.00,,,0.00,meteohub,2013-05-22 04:43:00,
2013-05-21 23:48:00,64.0,52.9,29.69,WNW,302,1.0,10.0,67,0.00,,,0.00,meteohub,2013-05-22 04:48:00,
2013-05-21 23:53:00,64.0,52.9,29.69,NW,319,2.0,10.0,67,0.00,,,0.00,meteohub,2013-05-22 04:53:00,
2013-05-21 23:58:00,63.9,52.7,29.69,NW,318,1.0,6.0,67,0.00,,,0.00,meteohub,2013-05-22 04:58:00,